Regional Weather Roundup
Issued by NWS

Home | Current Version | Previous Version | Graphics & Text | Print | Product List | Glossary On
Versions: 1 2 3 4 5 6 7 8 9 10 11 12 13 14 15 16 17 18 19 20 21 22 23 24 25 26 27 28 29 30 31 32 33 34 35 36 37 38 39 40 41 42 43 44 45 46 47 48 49 50
000
ASUS43 KMKX 180411
RWRWI

WISCONSIN REGIONAL WEATHER ROUNDUP
NATIONAL WEATHER SERVICE MILWAUKEE/SULLIVAN WI
1000 PM CST TUE JAN 17 2017

NOTE: "FAIR" INDICATES FEW OR NO CLOUDS BELOW 12,000 FEET WITH NO
SIGNIFICANT WEATHER AND/OR OBSTRUCTIONS TO VISIBILITY.

WIZ001-002-006>008-014>016-023>028-180500-
NORTHWEST WISCONSIN

CITY           SKY/WX    TMP DP  RH WIND       PRES   REMARKS
SUPERIOR ARPT  CLOUDY    27  23  84 SW9       29.90F WCI  18
ASHLAND        NOT AVBL
HAYWARD        CLOUDY    24  21  88 SW6       29.93R WCI  17
SIREN          CLOUDY    31  31  99 W9        29.95S FOG     WCI  23
CUMBERLAND     FOG       30  28  93 SW7       29.95S VSB 1/4 WCI  23
RICE LAKE      FOG       30  29  98 SW8       29.97S VSB<1/4 WCI  22
CHETEK         NOT AVBL
LADYSMITH      CLOUDY    29  28  96 SW5       29.95S WCI  23
EAU CLAIRE     FOG       30  30 100 SW10      29.98S VSB 1/4 WCI  21
MENOMONIE      FOG       32  32 100 SW7       29.99S VSB 1/2 WCI  26
NEW RICHMOND   CLOUDY    31  31 100 SW12      29.98S FOG     WCI  22
OSCEOLA        CLOUDY    32  32 100 SW9       30.01S WCI  24
$$

WIZ003>005-009-010-017-018-180500-
NORTH CENTRAL WISCONSIN

CITY           SKY/WX    TMP DP  RH WIND       PRES   REMARKS
MANITOWISH WTR CLOUDY    18  18 100 CALM      29.88F
ARBOR VITAE    FOG       22  20  93 CALM      29.89S VSB 1/2
WOODRUFF       FOG       22  20  93 CALM      29.89S VSB 1/2
RHINELANDER    CLOUDY    25  24  96 W5        29.90R WCI  19
EAGLE RIVER    FOG       21  21  98 CALM      29.88S VSB 1/2
LAND O LAKES   CLOUDY    18  16  94 CALM      29.89S
PHILLIPS       FOG      N/A N/A N/A CALM      29.91S VSB 1/2
TOMAHAWK       CLEAR     25  24  96 CALM      29.91S
MEDFORD        CLEAR     30  29  96 W5        29.92S WCI  25
MERRILL          N/A     31  31 100 CALM        N/A  FOG
$$

WIZ029-030-035-036-043>047-180500-
CENTRAL WISCONSIN

CITY           SKY/WX    TMP DP  RH WIND       PRES   REMARKS
WAUSAU         CLEAR     32  31  96 NW5       29.92R WCI  27
MOSINEE        CLEAR     32  32 100 W3        29.94R FOG
MARSHFIELD     FOG       30  29  96 W8        29.94R VSB 1/2 WCI  22
STEVENS POINT  PTCLDY    32  32 100 W3        29.95R FOG
WAUPACA        CLOUDY    35  34  94 CALM      29.95S FOG
WAUTOMA        CLOUDY    34  33  96 SW3       29.96R FOG
WISC RAPIDS    NOT AVBL
CAMP DOUGLAS   CLOUDY    34  34 100 W7        29.98R FOG     WCI  28
$$

WIZ011>013-019>022-031-037>040-048>050-180500-
NORTHEAST WISCONSIN

CITY           SKY/WX    TMP DP  RH WIND       PRES   REMARKS
ANTIGO         FOG       25  25 100 W3        29.91S VSB 1/2
SHAWANO        CLOUDY    35  33  94 CALM      29.93S FOG
OCONTO         CLOUDY    32  32  99 W3        29.93S VSB 1/2
STURGEON BAY   FOG       32  32 100 NW5       29.93S VSB 3/4 WCI  27
GREEN BAY      FOG       35  35 100 W3        29.94S VSB 3/4
MANITOWOC      CLOUDY    34  32  92 NW8       29.93S WCI  27
APPLETON       FOG       34  34 100 VRB5      29.92S VSB 1/2 WCI  30
CLINTONVILLE   CLOUDY    34  32  93 SW3       29.93S FOG
OSHKOSH        CLOUDY    33  33 100 W5        29.94S FOG     WCI  29
$$

WIZ032>034-041-042-053>061-180500-
SOUTHWEST WISCONSIN

CITY           SKY/WX    TMP DP  RH WIND       PRES   REMARKS
LA CROSSE      CLOUDY    36  32  85 W6        30.02R FOG     WCI  31
SPARTA         CLOUDY    33  33 100 W6        30.02R FOG     WCI  27
VIROQUA        CLOUDY    33  33 100 W8        29.99R VSB 1/4 WCI  26
BOSCOBEL       CLOUDY    35  33  92 SW6       30.03R FOG     WCI  30
PRAIRIE DU CHI CLOUDY    35  34  96 CALM      30.04S FOG
PLATTEVILLE    CLOUDY    34  34 100 W9        30.02R WCI  26
$$

WIZ056-057-062-063-064-067-068-180500-
SOUTH CENTRAL WISCONSIN

CITY           SKY/WX    TMP DP  RH WIND       PRES   REMARKS
REEDSBURG      CLOUDY    33  33 100 W5        29.98R FOG     WCI  29
BARABOO/DELLS  CLOUDY    33  33  99 W7        29.97R FOG     WCI  27
LONE ROCK      CLOUDY    34  32  92 W8        30.01R WCI  27
MINERAL POINT  CLOUDY    34  34 100 W8        29.99S FOG     WCI  27
MADISON        CLOUDY    33  33 100 W6        29.99R FOG     WCI  28
MIDDLETON      CLOUDY    35  35 100 W7        29.99R WCI  29
WATERTOWN      CLOUDY    33  33 100 W3        29.96R FOG
MONROE         CLOUDY    32  32 100 W10       29.98S WCI  24
JANESVILLE     CLOUDY    34  34 100 W7        29.98S WCI  28
$$

WIZ051-052-058>065-066-070>072-180500-
SOUTHEAST WISCONSIN

CITY           SKY/WX    TMP DP  RH WIND       PRES   REMARKS
MILWAUKEE      CLOUDY    36  33  89 W9        29.95S WCI  29
WAUKESHA       CLOUDY    32  32 100 W10       29.96S FOG     WCI  24
MILWAUKEE/TIMM CLOUDY    34  32  93 W7        29.96S FOG     WCI  28
RACINE         CLOUDY    35  33  92 W7        29.97S WCI  29
KENOSHA        CLOUDY    34  33  96 W8        29.96S FOG     WCI  27
FOND DU LAC    CLOUDY    34  31  88 W5        29.95R WCI  30
SHEBOYGAN      CLOUDY    34  32  92 NW6       29.94R FOG     WCI  29
WEST BEND      CLOUDY    32  32 100 W6        29.94S FOG     WCI  26
JUNEAU         CLOUDY    32  32  99 W3        29.96S FOG
$$

LSZ147-162-180500-
LAKE SUPERIOR

STATION/POSITION TIME  TEMP    WIND        PRES    WAVE
                       AIR SEA DIR/SP/G            HT/PER
                 (UTC) (F)     (DEG/KT/KT) (MB)    (FT/S)
DEVILS ISLAND    0400   33     220/ 12/ 14 1012.4F
PORT WING        0330   29     200/  6/  8 1012.9R
SAXON HARBOR     0340   21     200/  3/  6 1012.2F
$$

LMZ867-665-643>646-180500-
LAKE MICHIGAN

STATION/POSITION TIME  TEMP    WIND        PRES    WAVE
                       AIR SEA DIR/SP/G            HT/PER
                 (UTC) (F)     (DEG/KT/KT) (MB)    (FT/S)
NORTHPORT PIER   0340   33        CALM     1013.2R
SISTER BAY       0350   32        CALM       N/A
ALGOMA LAKESHORE 0153          320/  4/  6   N/A
KEWAUNEE LAKESHO 0342   33     290/  4/  5 1012.9R
SHEBOYGAN LAKESH 0400   34     290/  6/  8 1014.2R
PORT WASHINGTON  0340   35     290/  4/  7 1014.9S
MILWAUKEE LAKESH 0350   35     290/  7/  9   N/A
KENOSHA   LAKESH 0400   35     260/  8/ 13 1014.9
$$

TC  - TEMPERATURE IN CELSIUS
VSB - VISIBILITY IN STATUTE MILES
WCI - WIND CHILL INDEX
HX  - HEAT INDEX




USA.gov is the U.S. government's official web portal to all federal, state and local government web resources and services.